Temperature
22 22 21 22 25 25 24 28 32 33 33 32 32 31 29 28 27 26 25 24 22 23 22 22 21 21 20 20 20 20 20 19 19 19 19 19 19 19 19 19 19 19 19 19 19 19 19 19 19
22 21 22 25 27 24 23 25 31 32 33 32 32 30 29 27 27 26 25 23 22 22 22 21 21 21 20 20 20 20 20 19 19 19 19 19 19 19 19 19 19 19 18 18 18 19 19 19 19
22 23 25 28 29 26 25 28 32 33 33 32 31 29 27 26 26 25 24 24 22 21 21 22 21 21 20 20 20 20 19 19 19 19 19 19 19 19 19 19 19 19 18 18 18 18 19 19 19
22 25 27 29 30 30 29 31 33 33 33 32 31 28 25 25 25 25 24 24 22 21 21 21 21 20 20 20 20 19 19 19 19 19 19 19 19 19 19 19 19 19 18 18 18 18 18 19 19
23 27 29 30 31 31 31 32 32 32 32 32 30 27 25 24 25 25 25 24 23 21 21 21 21 20 20 20 20 19 19 19 19 19 19 19 19 19 19 19 19 18 18 18 18 18 18 18 19
26 29 30 30 31 31 30 30 31 32 32 31 29 26 24 24 24 25 25 24 23 21 21 22 21 21 20 20 20 19 19 19 19 19 19 19 19 19 19 19 19 18 18 18 18 18 18 18 18
27 29 30 31 32 31 31 30 29 29 30 30 29 27 24 24 24 25 25 24 23 22 21 21 21 21 20 20 20 20 19 19 19 19 19 19 19 19 19 19 19 19 18 18 18 18 18 18 18
28 30 30 31 32 32 31 29 27 26 26 27 28 27 24 23 24 24 24 24 23 22 21 20 20 20 20 20 20 20 19 19 19 19 19 19 19 19 19 18 19 19 19 18 18 18 18 18 18
28 29 29 31 32 31 29 28 26 26 26 26 26 26 23 23 24 24 24 23 22 22 21 21 20 20 20 19 19 19 19 19 19 19 19 18 18 18 18 18 18 18 18 18 18 18 18 18 18
29 29 30 33 33 31 29 27 26 26 26 25 24 24 23 23 23 24 24 23 22 22 21 21 20 20 20 19 19 19 18 18 18 18 18 18 18 18 18 18 18 18 18 18 18 18 18 18 18
30 30 31 32 32 31 30 28 27 26 23 22 22 23 23 23 24 24 24 23 22 22 21 21 20 20 20 19 19 19 18 18 18 18 18 18 18 18 18 18 18 18 18 18 18 18 18 18 18
30 31 31 31 31 31 30 28 26 23 21 22 22 23 24 24 24 24 23 23 22 21 21 20 20 20 19 19 19 19 18 18 18 18 18 18 17 17 17 17 18 18 17 17 17 17 17 17 17
31 31 30 30 31 30 29 28 25 22 22 22 23 23 24 24 24 23 23 22 21 21 20 20 19 19 19 19 19 18 18 18 18 18 18 17 17 17 17 17 17 17 17 17 17 17 17 17 17
30 29 29 28 29 30 30 27 25 22 22 23 23 24 24 23 23 22 22 21 20 20 20 19 19 19 19 19 19 18 18 18 18 17 17 17 17 16 16 16 16 16 16 16 16 16 16 16 16
29 28 27 27 28 28 29 26 24 23 23 23 23 24 23 22 22 22 21 20 20 19 19 19 18 18 18 18 18 18 18 18 17 17 16 16 16 16 16 16 16 16 16 16 16 16 16 16 16
28 26 25 26 27 28 27 22 21 22 23 24 24 23 22 22 21 21 20 20 19 19 19 19 18 18 18 18 18 18 18 17 17 16 16 16 15 15 15 15 15 15 15 15 15 16 16 16 16
26 24 23 24 26 28 26 21 19 22 22 24 24 23 22 21 20 20 20 19 19 18 18 18 18 18 18 18 18 18 18 17 17 16 16 16 15 14 14 14 14 14 14 15 15 15 15 15 15
27 26 25 25 27 28 26 22 21 22 23 23 23 22 21 21 20 20 19 19 18 18 18 18 18 18 18 18 18 17 17 17 16 16 16 15 14 14 14 14 14 14 14 14 14 14 14 14 15
29 28 26 26 28 27 25 23 21 22 23 23 23 22 21 21 20 20 19 19 18 18 18 18 18 18 18 17 17 17 17 17 16 16 16 15 14 14 14 13 14 13 13 13 14 13 14 14 14
29 27 26 27 28 28 26 23 22 23 24 23 23 22 21 21 20 20 20 19 19 19 18 18 18 18 18 17 17 17 17 16 16 16 15 15 14 13 13 13 13 13 13 13 13 13 13 13 14
28 27 27 27 28 27 25 23 23 23 23 22 23 22 22 21 21 20 20 20 19 19 19 19 18 18 17 17 17 16 16 16 16 16 15 15 14 13 13 13 12 12 13 13 13 13 13 13 13
28 29 29 28 27 24 24 22 22 22 22 23 23 23 22 22 21 21 20 20 20 20 19 19 18 18 17 17 16 16 16 16 16 15 15 14 14 13 13 12 12 12 12 12 12 13 13 13 13
30 30 28 26 24 23 24 24 24 23 23 24 24 23 23 23 22 21 21 21 21 20 20 19 18 18 17 17 16 16 16 15 15 15 14 14 14 13 13 13 12 12 12 12 12 12 12 12 12
31 28 25 22 21 21 24 25 25 25 25 25 25 24 24 23 23 22 22 21 21 21 20 19 18 18 17 16 16 15 15 15 15 14 14 14 14 14 14 13 12 12 12 12 12 12 12 12 12
29 27 23 21 20 21 26 27 26 27 27 27 26 25 24 24 23 23 22 22 21 21 20 20 19 18 17 16 16 15 15 14 14 14 14 13 13 14 13 13 12 12 12 12 11 11 11 11 11
29 28 26 24 24 25 27 27 27 29 29 28 27 26 25 25 24 24 23 23 22 21 20 20 19 18 17 16 16 15 15 14 14 14 14 13 13 13 13 12 12 12 11 11 11 11 11 11 11
30 30 30 28 27 25 26 28 28 29 28 28 27 26 26 25 25 24 24 23 22 21 21 20 19 18 17 16 16 15 15 14 14 13 13 13 13 12 12 12 12 11 11 11 11 11 11 11 11
31 30 30 28 26 24 23 24 26 27 28 28 28 27 26 26 25 25 24 23 22 21 20 19 18 18 17 16 15 15 15 14 13 13 13 13 12 12 12 12 11 11 11 11 11 11 11 11 11
30 30 29 29 28 26 23 23 26 28 29 28 28 28 27 26 26 25 24 23 22 21 20 19 18 17 17 16 15 15 14 14 13 13 13 12 12 12 12 12 11 11 11 11 11 11 11 11 11
29 30 29 28 27 28 27 26 29 30 30 29 29 28 27 27 26 25 24 23 22 21 20 19 18 17 17 16 15 15 14 14 13 13 13 12 12 12 12 11 11 11 11 11 11 11 11 10 10
Wind_Speed
12 13 11 8 6 5 8 9 5 12 14 13 14 16 19 17 12 13 15 23 24 20 19 18 16 15 13 13 12 12 12 12 12 12 11 11 10 10 9 8 7 7 7 7 7 7 7 7 7
12 13 10 7 7 3 2 10 2 12 11 11 16 20 20 18 16 16 17 21 23 20 18 18 17 15 14 13 13 13 12 12 12 12 11 10 9 9 8 7 6 5 5 5 5 5 5 5 5
14 16 8 8 9 4 6 8 5 10 9 11 16 17 13 12 14 14 16 20 22 20 20 19 17 15 14 13 13 12 12 12 11 11 10 9 8 7 6 5 5 4 4 4 4 4 4 4 4
8 10 8 11 14 6 4 3 3 9 9 11 16 13 10 8 11 17 17 20 22 20 20 18 17 15 13 12 12 11 11 10 10 9 8 7 6 5 4 3 3 3 2 2 2 2 3 2 2
11 9 13 17 15 5 5 4 4 8 8 11 17 15 12 9 15 16 15 19 19 20 19 18 16 14 13 11 11 10 9 9 8 7 6 5 4 3 3 2 1 1 1 1 1 1 1 1 1
9 11 15 17 11 4 5 6 1 7 9 14 19 18 10 10 13 14 15 16 19 21 19 18 16 14 12 11 9 9 8 7 7 6 5 4 3 2 2 2 2 2 2 1 1 2 2 3 3
12 14 18 21 15 7 6 2 4 4 4 9 16 15 12 13 11 11 13 14 18 20 18 16 16 14 12 11 10 9 7 6 5 4 3 2 2 2 3 3 3 3 3 3 3 3 4 4 5
12 13 19 20 17 6 1 1 4 4 4 3 9 12 13 13 12 11 12 14 15 15 15 14 15 14 13 12 11 10 8 7 5 4 3 2 4 5 6 5 5 4 4 4 4 5 6 6 7
13 13 17 18 12 1 4 3 4 4 8 7 11 15 19 18 14 13 13 13 13 12 10 11 12 11 11 14 12 11 9 7 6 5 4 4 4 2 3 3 3 3 4 5 5 6 7 8 10
10 13 18 13 8 3 5 2 1 1 6 13 16 18 20 17 15 15 14 13 12 10 9 9 8 6 6 9 10 7 7 7 5 4 2 1 3 4 2 2 2 4 5 5 6 7 8 9 10
11 15 16 13 8 4 1 3 3 2 6 11 13 14 16 16 14 14 13 12 12 10 8 9 8 8 7 6 6 5 5 5 5 7 5 4 4 4 4 3 2 4 5 4 4 5 6 6 6
10 13 12 12 10 7 5 2 6 12 9 11 9 9 12 13 13 12 12 12 12 11 9 9 9 8 8 7 4 5 5 4 5 6 6 5 3 3 3 2 3 3 3 2 3 3 5 5 7
9 9 10 12 11 8 5 3 7 12 15 14 12 11 12 12 12 12 12 12 12 11 10 10 10 9 7 5 3 5 4 3 5 5 6 5 2 2 3 2 3 4 4 2 1 3 3 4 6
8 8 10 11 12 9 6 4 7 10 14 15 13 12 12 11 12 12 11 12 11 10 10 9 9 7 5 4 2 1 3 4 5 6 6 6 5 4 4 3 2 3 3 2 2 3 3 3 3
8 8 8 11 12 7 4 1 3 8 14 11 12 11 12 11 12 11 11 11 12 10 9 8 8 7 5 4 1 2 3 5 4 5 6 7 7 6 5 4 3 3 4 3 3 3 3 4 5
6 5 5 9 13 7 2 3 5 3 6 10 12 12 11 10 11 10 10 11 12 11 8 6 8 8 6 4 2 3 6 6 3 4 7 9 7 6 6 4 3 5 6 4 3 3 2 3 3
5 3 6 9 12 8 2 4 3 8 6 7 9 12 12 11 11 10 11 11 11 10 8 7 8 7 6 4 2 4 4 2 1 4 7 7 6 6 6 4 3 5 4 3 5 4 4 4 5
7 3 6 8 7 4 3 7 6 9 7 4 8 10 11 11 11 10 11 12 10 10 8 8 7 6 4 3 1 1 1 1 1 4 7 5 4 7 7 5 5 5 4 4 4 5 4 4 5
6 2 2 5 6 4 3 9 9 11 7 7 9 9 10 10 11 11 11 12 12 10 9 7 7 5 2 1 0 1 2 2 2 2 6 3 4 5 5 4 5 4 4 5 5 5 6 5 4
5 5 5 7 8 5 1 4 5 5 3 5 10 10 10 11 11 10 10 11 11 10 8 7 7 6 4 3 1 1 1 3 2 1 3 2 3 4 6 5 5 5 5 5 4 4 4 6 5
4 4 8 8 5 1 3 2 2 2 3 4 7 11 12 13 13 12 10 10 11 11 10 9 8 7 5 2 2 2 1 3 2 2 1 3 3 3 4 4 4 5 6 5 5 5 5 5 6
5 7 9 7 4 2 1 2 4 5 5 6 7 10 12 12 13 12 11 10 11 10 10 7 7 6 4 3 2 3 3 3 3 1 1 2 2 3 2 2 3 4 5 6 6 5 5 6 5
6 5 10 14 9 3 5 4 4 9 8 10 11 12 12 13 13 13 13 11 10 10 8 8 7 6 4 3 2 3 3 4 4 4 3 2 4 4 4 2 1 3 5 5 5 5 5 5 6
7 5 10 10 6 5 10 6 5 8 9 11 13 13 13 13 13 13 12 11 9 8 8 9 9 7 5 4 3 2 2 3 4 5 5 4 3 2 2 1 1 3 4 4 5 5 6 5 5
7 5 2 2 1 7 11 4 6 8 9 11 14 14 13 13 13 12 11 11 10 8 8 9 10 8 6 4 3 1 2 3 5 6 5 3 4 2 2 2 2 3 4 4 5 5 6 6 6
8 6 4 5 3 4 5 5 9 9 9 10 13 14 14 13 13 12 12 10 10 9 8 8 9 7 5 4 3 1 1 4 4 2 4 4 4 4 2 2 3 4 5 6 5 5 6 6 5
8 8 7 7 6 4 2 6 12 10 10 11 12 13 13 12 12 12 11 9 9 8 7 7 9 7 5 3 3 4 4 4 4 4 5 5 3 5 4 4 5 5 5 5 6 5 6 6 6
9 9 8 6 4 1 5 4 4 10 11 10 11 12 12 12 12 11 11 10 10 9 8 8 8 7 4 4 4 4 3 4 4 5 5 5 5 5 5 6 6 6 6 6 6 6 7 6 6
7 8 6 7 7 5 1 2 6 9 10 12 12 12 13 12 12 11 10 10 10 10 10 8 8 7 6 5 4 2 2 3 4 4 5 5 5 5 6 6 7 7 7 7 6 7 8 8 7
11 9 6 6 6 7 3 2 2 4 8 10 11 12 12 12 11 11 12 10 10 10 10 10 8 8 7 6 5 5 5 5 5 5 4 4 5 6 6 6 6 7 8 7 6 7 8 7 8
Wind_Direction
200 222 230 245 246 242 309 308 68 76 76 70 69 75 68 60 78 96 110 108 111 115 119 115 108 104 99 99 107 116 119 120 120 120 120 119 118 117 113 108 102 96 90 83 78 75 75 76 77
217 226 235 246 243 247 284 283 80 87 90 91 85 84 77 71 85 103 109 115 117 122 126 117 112 107 103 101 105 111 114 115 117 118 118 119 120 120 116 111 106 101 98 93 86 80 80 83 85
239 241 251 251 247 229 202 235 122 112 112 101 86 73 72 79 93 108 120 126 119 115 114 117 116 111 107 104 105 108 111 113 114 115 116 118 120 120 118 116 111 105 99 100 97 91 88 89 93
238 235 243 257 264 263 234 250 122 121 113 113 103 88 82 63 101 117 134 124 115 118 118 119 118 115 113 110 109 110 112 113 115 117 118 120 121 121 120 121 121 113 104 102 106 115 112 106 110
242 257 250 262 269 280 289 271 168 118 123 107 101 104 100 86 107 128 139 122 125 120 120 124 122 120 119 119 118 118 119 120 122 124 126 130 133 135 136 134 139 145 133 137 138 151 154 167 176
246 253 261 268 268 246 274 301 306 123 130 116 112 111 106 118 121 137 131 127 123 120 122 126 127 126 126 127 127 127 128 130 133 134 136 141 144 150 172 189 204 216 213 220 230 219 208 213 222
258 271 275 277 274 232 230 275 46 52 83 112 119 113 123 133 132 132 125 117 118 122 128 137 138 138 140 140 139 138 138 139 136 131 133 154 186 215 230 231 228 233 240 238 234 235 232 226 225
260 277 279 278 276 261 147 4 78 104 71 56 111 119 136 142 140 129 121 111 112 119 129 139 145 149 156 153 151 151 150 147 147 151 166 217 242 240 238 238 226 232 247 250 248 244 239 234 230
263 264 268 275 289 348 74 50 55 114 126 88 69 109 131 141 138 137 129 118 113 114 120 128 137 150 159 155 154 160 160 161 172 180 203 234 268 265 225 228 199 222 246 254 253 249 245 240 236
248 259 265 289 323 16 83 98 122 206 113 96 90 103 126 137 142 144 139 134 131 123 113 103 116 120 118 125 136 144 153 158 174 129 149 267 342 343 2 153 202 233 255 260 254 255 253 243 242
258 265 283 303 308 305 267 186 166 125 86 84 100 124 135 140 146 143 139 140 134 126 114 112 99 75 66 86 103 101 105 111 89 71 48 33 5 353 13 12 301 271 266 271 279 256 263 260 266
266 280 290 294 296 292 273 238 88 91 110 104 121 143 141 143 139 133 128 123 119 116 106 96 87 78 66 63 78 92 86 82 79 76 51 32 3 2 19 3 331 309 298 272 279 267 271 285 283
266 279 299 298 287 271 247 171 105 115 132 137 159 161 144 134 124 115 109 109 112 111 101 88 86 83 79 62 37 79 87 86 98 86 67 26 6 11 358 340 324 314 317 326 328 282 279 275 271
324 325 321 310 298 267 233 154 120 127 136 154 163 155 135 127 124 118 117 111 108 104 100 98 99 99 101 100 70 85 102 102 89 85 69 31 26 23 352 314 323 310 310 346 295 278 270 266 258
348 330 327 300 289 275 238 92 50 144 143 152 145 133 128 124 116 120 120 119 115 111 110 115 121 115 111 108 117 92 82 77 76 92 88 52 31 13 346 311 314 350 332 309 282 282 268 258 258
330 314 292 272 275 278 270 68 357 307 153 149 141 134 125 113 115 117 116 115 115 116 121 132 120 116 110 91 40 63 54 55 54 68 81 59 21 10 338 325 350 355 325 309 293 271 293 310 314
290 241 259 268 266 254 171 118 239 266 232 159 143 133 127 123 120 120 120 116 118 121 122 110 107 121 119 116 75 86 91 73 31 68 76 54 4 3 352 332 344 336 320 319 324 6 0 330 320
282 207 204 235 251 258 124 134 200 242 245 162 134 129 134 138 137 136 132 130 129 129 129 124 124 117 129 125 107 111 100 136 55 84 90 57 3 19 3 311 7 351 323 338 352 337 312 287 275
343 3 267 262 273 288 153 145 188 218 214 168 145 139 140 142 144 144 147 145 141 140 142 147 141 135 160 129 1 12 27 359 356 95 103 67 25 13 316 325 349 321 331 345 326 329 315 301 278
359 339 305 278 267 282 138 128 187 202 183 176 154 152 153 152 149 150 157 154 151 153 155 156 160 164 185 148 141 209 293 290 277 49 118 101 46 358 330 25 334 346 338 306 308 309 305 309 320
331 294 266 258 252 346 29 10 285 256 248 198 161 163 167 164 158 162 170 167 165 167 172 179 173 166 182 184 240 286 261 270 298 20 67 73 28 341 334 333 336 340 320 329 339 319 318 313 316
292 266 276 292 295 319 210 251 245 203 227 200 185 175 171 168 162 168 178 180 180 176 177 173 163 164 168 195 263 298 299 309 328 345 44 49 310 273 289 311 327 331 315 315 317 3 338 319 310
305 332 9 15 4 331 271 242 184 177 197 191 191 185 177 173 171 175 181 183 185 179 171 166 157 156 168 202 239 270 311 337 356 2 343 324 275 237 225 211 280 316 296 314 332 325 318 312 309
318 1 28 24 4 305 250 233 167 171 178 180 185 179 177 177 177 179 184 178 180 178 170 162 151 157 169 196 234 252 304 327 326 318 304 295 291 257 185 177 96 304 304 327 320 310 299 294 302
292 296 346 345 251 250 242 213 123 132 153 166 169 171 176 179 180 181 186 178 177 182 171 155 149 158 171 194 208 244 328 316 274 261 277 305 309 325 69 37 353 298 302 293 282 287 286 288 290
267 272 276 289 257 224 227 130 130 127 127 142 156 164 174 180 183 184 184 180 176 175 168 157 149 153 166 188 178 166 273 277 288 355 352 321 303 311 339 297 274 271 274 283 294 294 283 278 279
284 290 293 287 315 353 336 109 123 136 140 149 156 163 176 182 183 182 175 172 165 165 157 148 138 147 168 190 165 193 216 246 293 314 282 278 305 302 322 325 302 286 276 272 276 273 279 282 277
260 295 308 311 314 301 356 352 158 157 154 157 164 169 175 181 183 178 171 168 161 154 140 135 138 152 170 195 209 223 193 220 234 256 286 300 297 294 298 288 286 284 280 272 264 268 269 271 269
258 257 283 305 316 331 46 290 188 178 166 169 175 178 179 184 183 175 168 159 155 153 148 148 149 158 178 203 203 244 258 269 269 258 259 267 277 286 282 279 278 277 275 269 261 260 264 265 264
306 280 260 277 308 307 325 113 124 139 161 171 178 179 179 180 178 168 160 153 158 164 161 161 165 177 185 191 188 205 225 240 252 264 274 283 283 283 286 286 285 284 284 282 275 270 272 271 272
Height
1512 1511 1512 1514 1511 1509 1508 1488 1470 1468 1469 1473 1475 1478 1487 1491 1498 1512 1515 1516 1517 1521 1524 1528 1531 1533 1536 1538 1541 1543 1544 1546 1547 1549 1550 1551 1551 1552 1553 1554 1554 1555 1556 1556 1557 1558 1558 1558 1559
1512 1512 1514 1511 1505 1515 1515 1493 1474 1470 1471 1473 1476 1482 1490 1497 1503 1510 1515 1518 1520 1522 1526 1529 1532 1535 1537 1540 1542 1544 1545 1547 1548 1550 1551 1551 1552 1553 1554 1554 1555 1556 1557 1557 1558 1559 1559 1560 1560
1511 1513 1512 1500 1494 1504 1503 1482 1469 1468 1471 1473 1479 1486 1495 1503 1507 1512 1517 1520 1522 1525 1527 1531 1533 1536 1538 1541 1543 1545 1546 1548 1549 1550 1551 1552 1553 1554 1555 1555 1556 1557 1558 1558 1559 1559 1560 1561 1561
1512 1512 1507 1494 1487 1483 1481 1473 1466 1466 1470 1473 1480 1492 1502 1506 1509 1513 1518 1521 1523 1526 1529 1532 1535 1537 1540 1542 1544 1546 1547 1549 1550 1551 1552 1553 1554 1554 1555 1556 1556 1557 1558 1559 1559 1560 1561 1561 1562
1513 1508 1499 1490 1480 1477 1474 1470 1466 1467 1471 1474 1481 1495 1504 1508 1511 1515 1519 1522 1525 1528 1530 1533 1536 1539 1541 1543 1545 1546 1548 1549 1551 1552 1552 1553 1554 1555 1555 1556 1557 1557 1558 1559 1560 1560 1561 1562 1562
1511 1500 1496 1489 1478 1475 1476 1472 1470 1469 1473 1477 1484 1495 1506 1510 1513 1516 1520 1524 1526 1528 1531 1535 1537 1540 1542 1544 1546 1547 1549 1550 1551 1552 1553 1553 1554 1555 1555 1556 1557 1557 1558 1559 1559 1560 1561 1562 1562
1508 1499 1493 1483 1475 1474 1473 1472 1474 1477 1478 1479 1484 1493 1505 1511 1514 1517 1521 1524 1527 1530 1532 1535 1538 1541 1543 1545 1546 1548 1549 1550 1551 1552 1553 1554 1554 1555 1555 1556 1556 1557 1557 1558 1559 1559 1560 1561 1562
1505 1499 1492 1480 1473 1473 1474 1476 1478 1481 1486 1485 1486 1493 1504 1510 1514 1518 1522 1526 1529 1532 1535 1537 1540 1542 1543 1545 1547 1548 1549 1551 1551 1552 1553 1554 1554 1554 1554 1555 1555 1555 1556 1557 1557 1558 1559 1560 1561
1503 1501 1495 1480 1472 1474 1476 1479 1483 1486 1487 1487 1489 1494 1502 1509 1514 1518 1523 1527 1530 1534 1537 1539 1541 1543 1545 1546 1547 1548 1549 1550 1551 1552 1552 1553 1554 1554 1553 1553 1554 1554 1555 1555 1556 1556 1557 1558 1559
1499 1498 1487 1474 1471 1474 1478 1483 1486 1489 1490 1492 1495 1501 1506 1510 1514 1519 1523 1528 1532 1535 1538 1541 1543 1545 1547 1548 1548 1549 1550 1550 1551 1551 1552 1553 1553 1554 1553 1552 1553 1553 1554 1554 1554 1555 1555 1556 1557
1494 1491 1482 1477 1476 1476 1479 1484 1486 1488 1497 1499 1499 1505 1509 1512 1515 1519 1524 1528 1532 1536 1539 1541 1543 1545 1546 1547 1548 1549 1550 1551 1552 1551 1551 1552 1552 1552 1552 1551 1551 1551 1552 1552 1552 1552 1553 1554 1554
1492 1487 1483 1481 1479 1478 1480 1484 1488 1492 1501 1500 1503 1508 1511 1513 1516 1520 1524 1528 1532 1536 1539 1541 1542 1544 1545 1547 1549 1550 1550 1551 1551 1550 1551 1551 1551 1551 1550 1549 1549 1549 1549 1550 1550 1550 1551 1551 1552
1489 1487 1486 1483 1480 1479 1481 1483 1490 1499 1500 1503 1507 1510 1511 1513 1517 1521 1525 1529 1532 1536 1539 1540 1542 1543 1545 1547 1548 1549 1550 1551 1551 1550 1550 1550 1550 1549 1549 1548 1548 1548 1547 1548 1548 1548 1548 1549 1549
1489 1488 1487 1486 1485 1481 1481 1487 1491 1497 1499 1504 1507 1509 1511 1514 1518 1522 1526 1529 1532 1535 1538 1539 1541 1543 1545 1547 1548 1549 1550 1550 1550 1550 1549 1549 1549 1547 1547 1547 1546 1546 1546 1545 1545 1546 1546 1546 1546
1493 1493 1492 1490 1487 1485 1485 1491 1497 1500 1501 1504 1506 1510 1513 1516 1519 1523 1527 1530 1532 1535 1537 1539 1541 1543 1545 1546 1548 1550 1551 1550 1550 1549 1549 1547 1547 1546 1545 1545 1544 1544 1544 1543 1544 1544 1544 1544 1544
1495 1502 1507 1497 1490 1486 1491 1508 1504 1502 1503 1505 1507 1511 1515 1517 1520 1524 1527 1530 1532 1534 1537 1540 1542 1543 1545 1546 1548 1549 1550 1550 1550 1549 1548 1546 1546 1545 1544 1543 1543 1542 1542 1542 1542 1542 1542 1541 1541
1501 1513 1514 1503 1491 1485 1493 1512 1509 1504 1504 1504 1506 1510 1514 1518 1521 1524 1527 1530 1532 1534 1537 1540 1541 1543 1545 1547 1548 1549 1549 1549 1549 1549 1547 1545 1545 1544 1543 1542 1541 1541 1540 1541 1540 1540 1539 1539 1538
1500 1502 1507 1503 1488 1485 1493 1507 1506 1503 1503 1505 1507 1510 1514 1518 1522 1525 1527 1530 1532 1534 1537 1540 1541 1543 1545 1547 1548 1548 1549 1549 1548 1547 1545 1544 1543 1542 1541 1541 1540 1539 1539 1539 1538 1537 1537 1537 1537
1485 1493 1499 1495 1485 1488 1493 1501 1504 1505 1504 1506 1508 1511 1514 1518 1521 1524 1527 1530 1532 1534 1537 1539 1542 1543 1545 1546 1547 1547 1548 1547 1547 1546 1544 1543 1542 1541 1540 1539 1538 1538 1538 1537 1536 1536 1535 1535 1535
1486 1496 1498 1491 1483 1487 1494 1502 1503 1502 1503 1506 1507 1511 1514 1517 1521 1524 1527 1530 1532 1534 1536 1538 1540 1542 1543 1544 1545 1545 1545 1546 1546 1545 1543 1542 1540 1539 1540 1538 1537 1536 1535 1535 1534 1534 1533 1533 1533
1488 1495 1494 1491 1485 1488 1496 1506 1504 1501 1503 1505 1507 1510 1513 1516 1519 1523 1526 1529 1531 1533 1535 1538 1539 1541 1542 1543 1543 1544 1544 1544 1544 1543 1542 1540 1539 1538 1537 1536 1535 1534 1534 1533 1533 1532 1531 1531 1531
1489 1482 1482 1485 1493 1504 1505 1519 1508 1502 1504 1504 1506 1509 1512 1515 1518 1522 1525 1528 1530 1532 1534 1536 1537 1539 1540 1541 1541 1542 1542 1542 1542 1541 1540 1538 1537 1537 1536 1534 1533 1532 1532 1531 1531 1531 1529 1529 1529
1479 1477 1485 1494 1504 1507 1504 1509 1506 1499 1502 1502 1504 1507 1510 1513 1516 1520 1523 1526 1529 1531 1533 1534 1536 1537 1538 1538 1539 1539 1539 1539 1539 1538 1537 1536 1536 1535 1534 1533 1532 1531 1530 1530 1529 1528 1527 1527 1527
1475 1481 1493 1506 1517 1526 1504 1502 1504 1495 1494 1495 1499 1503 1507 1511 1515 1518 1521 1524 1527 1530 1531 1532 1534 1535 1536 1536 1537 1537 1536 1536 1535 1535 1535 1535 1535 1534 1533 1532 1530 1529 1528 1527 1526 1525 1525 1524 1524
1478 1492 1515 1530 1537 1526 1490 1490 1493 1481 1482 1487 1494 1499 1505 1508 1512 1516 1519 1522 1525 1527 1530 1531 1532 1533 1534 1534 1535 1534 1534 1534 1533 1533 1533 1533 1533 1533 1531 1530 1528 1527 1526 1525 1524 1523 1522 1522 1521
1477 1483 1506 1519 1517 1505 1483 1487 1483 1476 1480 1485 1490 1496 1502 1506 1509 1513 1516 1519 1522 1525 1527 1529 1530 1531 1532 1532 1532 1532 1532 1532 1532 1532 1531 1531 1531 1530 1529 1528 1526 1524 1523 1522 1521 1520 1519 1519 1518
1475 1474 1472 1484 1489 1504 1494 1482 1480 1477 1480 1483 1488 1494 1499 1503 1506 1510 1514 1517 1520 1523 1525 1527 1528 1529 1530 1530 1530 1530 1530 1529 1529 1529 1529 1529 1528 1527 1526 1524 1523 1522 1521 1519 1518 1517 1516 1516 1515
1468 1469 1473 1483 1500 1512 1513 1503 1494 1482 1481 1482 1486 1491 1495 1500 1504 1507 1511 1514 1518 1521 1523 1525 1526 1527 1528 1528 1528 1529 1528 1528 1527 1526 1526 1525 1524 1524 1522 1521 1520 1518 1517 1516 1515 1514 1513 1512 1512
1472 1472 1474 1476 1480 1497 1521 1514 1481 1475 1476 1478 1482 1487 1492 1496 1500 1504 1508 1512 1515 1518 1520 1522 1524 1525 1525 1526 1526 1526 1526 1525 1525 1524 1523 1522 1521 1520 1519 1518 1516 1515 1514 1513 1511 1510 1509 1509 1508
1472 1470 1472 1486 1489 1483 1493 1500 1468 1469 1471 1474 1478 1483 1488 1492 1496 1500 1505 1509 1513 1516 1518 1520 1521 1522 1523 1523 1523 1523 1523 1522 1522 1521 1521 1520 1518 1517 1516 1514 1513 1512 1510 1509 1508 1506 1506 1505 1504